Location: Rounton
(54.4000°N, 1.3500°W)
Time: 11:54:00
(UTC+01:00)

Vanguard 1 - Pass Details

Date: 23 February 2024
Orbit: 653 x 3825 km, 34.2° (Epoch: 22 April)

Event Time Altitude Azimuth Distance (km) Brightness Sun altitude
Rises 21:00:28 0° 232° (SW) 5,975 14.3 -30.7°
Reaches altitude 10° 21:04:15 10° 224° (SW) 5,351 13.9 -31.1°
Maximum altitude 21:19:28 39° 164° (SSE) 4,538 12.9 -33.0°
Enters shadow 21:20:47 38° 158° (SSE) 4,610 12.9 -33.2°
